User: anonymous   Login
Location: Unspecified
(0.0000°N, 0.0000°E)
Time: 20:02:55
(UTC+00:00)
Language:

SMS 2 - Orbit

View from above orbital plane
View from above orbital plane
View from above satellite
View from above satellite

Ground track
Ground track

The orbit data is extracted from the following two-line orbital elements,

1  7648U 75011A   19341.45640024 -.00000156  00000-0  00000+0 0  9994
2  7648  11.1512 310.9265 0009664 210.8261   2.9133  0.99508252112012
Epoch (UTC): 07 December 2019 10:57:12
Eccentricity: 0.0009664
inclination: 11.1512°
perigee height: 35960 km
apogee height: 36042 km
right ascension of ascending node: 310.9265°
argument of perigee: 210.8261°
revolutions per day: 0.99508252
mean anomaly at epoch: 2.9133°
orbit number at epoch: 11201

The dashed part of the orbit path shows where the satellite is in the earth's shadow,  

DLR